{"data":{"norad_id":67997,"epoch":"2026-05-24T21:44:01.362048Z","epoch_age_seconds":77030,"freshness":"FRESH","line1":"1 67997U 26039M   26144.90557132  .00013805  00000+0  51002-3 0  9994","line2":"2 67997  43.0026 338.1602 0001285 277.0900  82.9806 15.27595496 13368","mean_motion":15.27595496,"eccentricity":0.0001285,"inclination_deg":43.0026,"raan_deg":338.1602,"arg_perigee_deg":277.09,"mean_anomaly_deg":82.9806,"bstar":0.00051002,"rev_number":1336,"period_min":94.265792467354,"perigee_km":482.12103938232,"apogee_km":483.88435228415,"semimajor_km":6861.1396958332,"source":"CELESTRAK","updated_at":"2026-05-25T13:38:21.781167Z"}}